TimeEDT,TemperatureF,Dew PointF,Humidity,Sea Level PressureIn,VisibilityMPH,Wind Direction,Wind SpeedMPH,Gust SpeedMPH,PrecipitationIn,Events,Conditions,WindDirDegrees,DateUTC
12:15 AM,59.2,53.8,82,29.94,10.0,Calm,Calm,-,N/A,,Scattered Clouds,0,2013-03-12 04:15:00
12:35 AM,60.1,54.7,82,29.95,10.0,SSE,5.8,-,N/A,,Scattered Clouds,160,2013-03-12 04:35:00
12:55 AM,61.5,54.9,79,29.96,10.0,South,6.9,-,N/A,,Scattered Clouds,180,2013-03-12 04:55:00
1:15 AM,61.9,54.9,78,29.94,10.0,SSE,5.8,-,N/A,,Scattered Clouds,150,2013-03-12 05:15:00
1:35 AM,62.1,55.9,80,29.92,10.0,SSE,6.9,-,N/A,,Scattered Clouds,150,2013-03-12 05:35:00
1:55 AM,62.6,57.4,83,29.92,10.0,SSE,10.4,-,N/A,,Mostly Cloudy,150,2013-03-12 05:55:00
2:15 AM,63.5,58.3,83,29.90,10.0,SSE,10.4,-,N/A,,Scattered Clouds,150,2013-03-12 06:15:00
2:35 AM,63.5,59.0,85,29.90,10.0,South,9.2,19.6,N/A,Rain,Light Rain,170,2013-03-12 06:35:00
2:55 AM,63.7,59.0,85,29.90,10.0,SSE,10.4,16.1,N/A,,Scattered Clouds,160,2013-03-12 06:55:00
3:15 AM,63.9,58.6,83,29.90,10.0,South,9.2,16.1,N/A,,Scattered Clouds,170,2013-03-12 07:15:00
3:35 AM,64.0,58.3,82,29.88,10.0,South,9.2,-,N/A,,Scattered Clouds,170,2013-03-12 07:35:00
3:55 AM,63.9,58.5,83,29.87,10.0,SSE,10.4,-,N/A,,Drizzle,160,2013-03-12 07:55:00
4:15 AM,63.0,59.0,87,29.88,10.0,South,6.9,17.3,N/A,Rain,Light Rain,180,2013-03-12 08:15:00
4:35 AM,62.6,59.0,88,29.87,10.0,SSE,6.9,-,N/A,Rain,Light Rain,160,2013-03-12 08:35:00
4:55 AM,62.6,59.0,88,29.87,10.0,SSE,5.8,-,N/A,,Light Drizzle,160,2013-03-12 08:55:00
5:15 AM,62.6,59.2,89,29.86,10.0,SSE,5.8,-,0.01,Rain,Light Rain,150,2013-03-12 09:15:00
5:35 AM,61.7,59.5,93,29.86,7.0,SSE,6.9,-,0.03,Rain,Rain,160,2013-03-12 09:35:00
5:55 AM,61.0,59.5,95,29.86,5.0,South,5.8,-,0.08,Rain,Rain,170,2013-03-12 09:55:00
6:15 AM,60.8,59.5,96,29.86,7.0,SSE,8.1,-,0.03,Rain,Light Rain,160,2013-03-12 10:15:00
6:35 AM,61.0,59.4,94,29.85,10.0,SSE,5.8,-,0.04,Rain,Rain,160,2013-03-12 10:35:00
6:55 AM,60.8,59.4,95,29.85,7.0,South,6.9,-,0.04,Rain,Rain,170,2013-03-12 10:55:00
7:15 AM,61.2,59.9,96,29.86,5.0,South,9.2,16.1,0.02,Rain,Rain,180,2013-03-12 11:15:00
7:35 AM,61.2,59.9,96,29.87,7.0,South,8.1,-,0.03,Rain,Light Rain,190,2013-03-12 11:35:00
7:55 AM,61.0,60.3,97,29.86,3.0,SSW,4.6,-,0.11,Rain,Rain,200,2013-03-12 11:55:00
8:15 AM,61.0,60.1,97,29.86,7.0,South,5.8,-,0.01,Rain,Light Rain,170,2013-03-12 12:15:00
8:35 AM,61.2,60.3,97,29.86,7.0,SSE,5.8,-,0.02,Rain,Light Rain,150,2013-03-12 12:35:00
8:55 AM,61.2,60.4,97,29.85,7.0,SE,3.5,-,0.03,Rain,Light Rain,130,2013-03-12 12:55:00
9:15 AM,61.0,60.4,98,29.85,7.0,SE,4.6,-,N/A,,Mostly Cloudy,140,2013-03-12 13:15:00
9:35 AM,61.2,60.4,97,29.87,7.0,SSE,6.9,-,N/A,Rain,Light Rain,150,2013-03-12 13:35:00
9:55 AM,61.7,60.8,97,29.86,7.0,SSE,5.8,-,N/A,,Overcast,160,2013-03-12 13:55:00
10:15 AM,62.1,61.0,96,29.86,7.0,SSE,5.8,-,N/A,,Mostly Cloudy,160,2013-03-12 14:15:00
10:35 AM,62.6,61.2,95,29.86,7.0,South,4.6,-,N/A,,Scattered Clouds,170,2013-03-12 14:35:00
10:55 AM,63.0,61.7,96,29.86,7.0,SSW,5.8,-,N/A,Rain,Rain,200,2013-03-12 14:55:00
11:15 AM,63.0,61.7,96,29.86,5.0,SSW,5.8,-,N/A,,Light Drizzle,200,2013-03-12 15:15:00
11:35 AM,63.7,61.9,94,29.87,7.0,SSW,6.9,-,N/A,,Scattered Clouds,200,2013-03-12 15:35:00
11:55 AM,64.0,62.2,94,29.87,5.0,SSW,8.1,-,N/A,Rain,Rain,200,2013-03-12 15:55:00
12:15 PM,64.8,62.2,92,29.87,10.0,SSW,10.4,-,N/A,,Scattered Clouds,210,2013-03-12 16:15:00
12:35 PM,65.5,61.2,86,29.86,10.0,SW,8.1,-,N/A,,Scattered Clouds,220,2013-03-12 16:35:00
12:55 PM,65.8,61.0,84,29.86,10.0,SSW,10.4,16.1,N/A,,Scattered Clouds,210,2013-03-12 16:55:00
1:15 PM,67.1,60.6,80,29.85,10.0,SW,9.2,17.3,N/A,,Scattered Clouds,220,2013-03-12 17:15:00
1:35 PM,66.7,60.1,79,29.84,7.0,SW,10.4,17.3,N/A,Rain,Light Rain,220,2013-03-12 17:35:00
1:55 PM,67.1,59.4,76,29.83,10.0,SSW,12.7,19.6,N/A,,Mostly Cloudy,210,2013-03-12 17:55:00
2:15 PM,65.7,59.5,81,29.83,10.0,SW,12.7,25.3,N/A,,Scattered Clouds,220,2013-03-12 18:15:00
2:35 PM,65.8,59.7,81,29.82,10.0,SSW,12.7,20.7,N/A,,Mostly Cloudy,210,2013-03-12 18:35:00
2:55 PM,66.4,59.9,80,29.81,10.0,SW,8.1,-,N/A,,Overcast,230,2013-03-12 18:55:00
3:15 PM,67.6,60.8,79,29.80,10.0,SW,4.6,-,N/A,,Overcast,230,2013-03-12 19:15:00
3:35 PM,67.5,60.1,77,29.79,10.0,SW,6.9,-,N/A,,Overcast,220,2013-03-12 19:35:00
3:55 PM,70.0,60.1,71,29.79,10.0,SW,12.7,18.4,N/A,,Mostly Cloudy,220,2013-03-12 19:55:00
4:15 PM,70.3,60.1,70,29.77,10.0,SSW,12.7,16.1,N/A,,Scattered Clouds,210,2013-03-12 20:15:00
4:35 PM,70.9,60.3,69,29.77,10.0,SW,6.9,-,N/A,,Mostly Cloudy,220,2013-03-12 20:35:00
4:55 PM,70.2,59.2,68,29.77,10.0,West,8.1,-,N/A,,Mostly Cloudy,270,2013-03-12 20:55:00
5:15 PM,70.9,59.5,67,29.77,10.0,WSW,4.6,-,N/A,,Scattered Clouds,250,2013-03-12 21:15:00
5:35 PM,71.6,56.8,60,29.77,10.0,SW,6.9,-,N/A,,Clear,230,2013-03-12 21:35:00
5:55 PM,71.2,56.8,60,29.77,10.0,WSW,5.8,-,N/A,,Clear,240,2013-03-12 21:55:00
6:15 PM,70.9,56.5,60,29.77,10.0,Calm,Calm,-,N/A,,Clear,0,2013-03-12 22:15:00
6:35 PM,70.7,56.8,61,29.78,10.0,WSW,3.5,-,N/A,,Clear,250,2013-03-12 22:35:00
6:55 PM,69.1,57.2,66,29.79,10.0,Calm,Calm,-,N/A,,Clear,0,2013-03-12 22:55:00
7:15 PM,67.3,57.4,70,29.80,10.0,Calm,Calm,-,N/A,,Scattered Clouds,0,2013-03-12 23:15:00
7:35 PM,65.8,57.4,74,29.81,10.0,Calm,Calm,-,N/A,,Scattered Clouds,0,2013-03-12 23:35:00
7:55 PM,63.7,57.6,80,29.82,10.0,Calm,Calm,-,N/A,,Clear,0,2013-03-12 23:55:00
8:15 PM,62.2,57.4,84,29.83,10.0,Calm,Calm,-,N/A,,Clear,0,2013-03-13 00:15:00
8:35 PM,60.8,56.5,86,29.83,10.0,Calm,Calm,-,N/A,,Clear,0,2013-03-13 00:35:00
8:55 PM,58.8,55.9,90,29.84,10.0,Calm,Calm,-,N/A,,Clear,0,2013-03-13 00:55:00
9:15 PM,58.5,55.4,90,29.85,10.0,Calm,Calm,-,N/A,,Clear,0,2013-03-13 01:15:00
9:35 PM,58.6,53.8,84,29.85,10.0,Calm,Calm,-,N/A,,Clear,0,2013-03-13 01:35:00
9:55 PM,60.1,51.1,72,29.87,10.0,Calm,Calm,-,N/A,,Clear,0,2013-03-13 01:55:00
10:15 PM,59.5,50.2,71,29.88,10.0,Calm,Calm,-,N/A,,Clear,0,2013-03-13 02:15:00
10:35 PM,57.7,50.7,77,29.88,10.0,Calm,Calm,-,N/A,,Clear,0,2013-03-13 02:35:00
10:55 PM,56.7,50.2,79,29.88,10.0,Calm,Calm,-,N/A,,Clear,0,2013-03-13 02:55:00
11:15 PM,58.5,49.1,71,29.90,10.0,Calm,Calm,-,N/A,,Clear,0,2013-03-13 03:15:00
11:35 PM,57.9,46.2,65,29.90,10.0,Calm,Calm,-,N/A,,Clear,0,2013-03-13 03:35:00
11:55 PM,57.2,42.6,58,29.91,10.0,Calm,Calm,-,N/A,,Clear,0,2013-03-13 03:55:00